Stations météo

réclame
Mon MeteoGroup
Uccle, Belgique (6447): Température de l'air & dewpoint: 09.01.2021 22:00:00 - 15.01.2021 22:00:00 (CET)Uccle, Belgique (6447): Vitesse du vent & gusts: 09.01.2021 22:00:00 - 15.01.2021 22:00:00 (CET)Uccle, Belgique (6447): Direction du vent: 09.01.2021 22:00:00 - 15.01.2021 22:00:00 (CET)Uccle, Belgique (6447): reduced air pressure: 09.01.2021 22:00:00 - 15.01.2021 22:00:00 (CET)Uccle, Belgique (6447): Ensoleillement: 09.01.2021 22:00:00 - 15.01.2021 22:00:00 (CET)Uccle, Belgique (6447): Quantités de précipitations: 09.01.2021 22:00:00 - 15.01.2021 22:00:00 (CET)
Date & Time tt [°C] td [°C] ff [km/h] ff [knt] fx [km/h] fx [knt] dd ppp [hPa] sd [min] rr [mm]
15.01.2021 22:00:00 1,0 -1,7 5 3 8 5 W 1031,6 0 0,0
15.01.2021 21:00:00 1,1 -2,1 4 2 10 5 W 1031,2 0 0,0
15.01.2021 20:00:00 1,3 -2,1 5 3 8 4 W 1031,3 0 0,0
15.01.2021 19:00:00 1,5 -2,6 4 2 13 7 NNW 1031,0 0 0,0
15.01.2021 18:00:00 1,6 -3,2 8 5 12 7 NNW 1030,8 0 0,0
15.01.2021 17:00:00 1,7 -3,4 7 4 17 9 NE 1030,4 0 0,0
15.01.2021 16:00:00 1,9 -3,9 7 4 19 11 NNE 1030,0 0 0,0
15.01.2021 15:00:00 1,7 -3,7 9 5 20 11 N 1029,9 0 0,0
15.01.2021 14:00:00 1,5 -3,3 8 4 18 10 N 1029,9 0 0,0
15.01.2021 13:00:00 1,4 -3,4 7 4 19 11 NNE 1030,0 0 0,0
15.01.2021 12:00:00 0,9 -3,1 11 6 23 13 N 1030,1 0 0,0
15.01.2021 11:00:00 0,5 -3,0 10 5 19 11 NNE 1029,4 0 0,0
15.01.2021 10:00:00 0,1 -3,2 13 7 26 14 NNE 1028,5 0 0,0
15.01.2021 09:00:00 -0,1 -3,3 11 6 23 12 NNE 1027,4 0 0,0
15.01.2021 08:00:00 -0,4 -3,4 11 6 22 12 NE 1026,6 0 0,0
15.01.2021 07:00:00 -0,6 -3,2 11 6 25 14 NE 1025,7 0 0,0
15.01.2021 06:00:00 -0,9 -2,8 14 7 26 14 NE 1024,9 0 0,0
15.01.2021 05:00:00 -0,7 -2,8 17 9 28 15 NE 1024,2 0 0,0
15.01.2021 04:00:00 -0,6 -3,2 15 8 31 17 NE 1023,3 0 0,0
15.01.2021 03:00:00 -0,6 -2,8 16 9 31 17 NE 1022,6 0 0,0
15.01.2021 02:00:00 -0,4 -2,5 16 9 34 18 NE 1021,5 0 0,0
15.01.2021 01:00:00 0,0 -2,2 14 8 29 16 NE 1020,6 0 0,0
15.01.2021 00:00:00 0,4 -1,8 16 8 37 20 NE 1020,0 0 0,0
14.01.2021 23:00:00 0,7 -1,3 16 9 31 17 ENE 1019,4 0 0,0
14.01.2021 22:00:00 0,9 -0,6 13 7 24 13 NE 1018,6 0 0,1
14.01.2021 21:00:00 0,9 -0,2 15 8 31 17 ENE 1017,9 0 0,4
14.01.2021 20:00:00 1,0 -0,1 14 8 30 16 ENE 1017,3 0 0,5
14.01.2021 19:00:00 1,3 0,2 14 8 29 16 ENE 1016,9 0 0,2
14.01.2021 18:00:00 1,4 0,0 13 7 26 14 ENE 1016,6 0 0,0
14.01.2021 17:00:00 1,3 0,2 13 7 27 15 E 1016,3 0 0,1
14.01.2021 16:00:00 1,5 0,5 11 6 26 14 E 1016,5 0 0,0
14.01.2021 15:00:00 1,1 0,4 12 6 21 12 E 1017,1 0 0,4
14.01.2021 14:00:00 0,6 -0,1 10 6 29 16 E 1017,9 0 0,5
14.01.2021 13:00:00 0,8 -0,4 14 8 30 16 E 1018,5 0 0,0
14.01.2021 12:00:00 0,8 -0,5 16 8 30 16 ESE 1019,1 0 0,6
14.01.2021 11:00:00 0,5 -0,6 17 9 27 15 ESE 1019,6 0 0,3
14.01.2021 10:00:00 0,3 -0,5 13 7 25 13 ESE 1019,6 0 0,5
14.01.2021 09:00:00 0,3 -0,5 11 6 23 12 E 1019,2 0 0,5
14.01.2021 08:00:00 0,5 -0,2 10 5 26 14 E 1019,1 0 0,9
14.01.2021 07:00:00 1,8 1,0 11 6 22 12 ENE 1019,0 0 1,1
14.01.2021 06:00:00 2,6 2,1 4 2 8 4 NW 1018,8 0 1,1
14.01.2021 05:00:00 2,7 2,2 7 4 10 6 WSW 1018,6 0 1,0
14.01.2021 04:00:00 2,7 2,1 8 4 13 7 WSW 1018,3 0 1,3
14.01.2021 03:00:00 2,8 2,1 5 3 13 7 SW 1018,6 0 0,6
14.01.2021 02:00:00 2,9 2,0 6 3 13 7 WSW 1018,3 0 0,0
14.01.2021 01:00:00 3,0 1,3 7 4 13 7 W 1018,4 0 0,0
14.01.2021 00:00:00 3,0 1,2 8 4 16 9 W 1018,2 0 0,2
13.01.2021 23:00:00 3,3 0,9 8 4 16 9 W 1017,9 0 0,0
13.01.2021 22:00:00 3,9 2,5 11 6 20 11 WNW 1017,5 0 0,0
13.01.2021 21:00:00 4,3 3,8 10 5 17 9 W 1016,8 0 0,1
13.01.2021 20:00:00 4,2 3,8 9 5 15 8 W 1016,5 0 0,1
13.01.2021 19:00:00 4,2 3,8 7 4 15 8 W 1016,4 0 0,2
13.01.2021 18:00:00 4,1 3,6 6 4 18 10 W 1016,3 0 0,3
13.01.2021 17:00:00 4,0 3,5 10 5 18 10 W 1016,3 0 0,1
13.01.2021 16:00:00 3,9 3,2 9 5 22 12 WSW 1016,4 0 0,0
13.01.2021 15:00:00 4,1 2,6 11 6 23 12 WSW 1016,9 0 0,0
13.01.2021 14:00:00 3,9 1,7 9 5 24 13 SW 1017,2 0 0,0
13.01.2021 13:00:00 3,6 1,0 11 6 24 13 SW 1018,0 36 0,0
13.01.2021 12:00:00 3,4 0,7 10 6 23 12 WSW 1018,8 47 0,0
13.01.2021 11:00:00 1,8 0,3 9 5 20 11 WSW 1019,6 0 0,0
13.01.2021 10:00:00 1,5 0,2 8 4 21 12 WSW 1019,7 0 0,0
13.01.2021 09:00:00 1,3 0,4 9 5 20 11 WSW 1019,7 0 0,0
13.01.2021 08:00:00 1,2 0,4 11 6 21 11 WSW 1019,7 0 0,0
13.01.2021 07:00:00 0,6 -0,1 7 4 16 9 WSW 1019,7 0 0,0
13.01.2021 06:00:00 0,1 -0,4 7 4 16 9 WSW 1020,0 0 0,0
13.01.2021 05:00:00 -0,2 -0,7 9 5 14 8 WSW 1020,2 0 0,0
13.01.2021 04:00:00 -0,3 -0,8 7 4 14 7 WSW 1020,2 0 0,0
13.01.2021 03:00:00 -0,4 -0,9 7 4 11 6 WSW 1019,8 0 0,0
13.01.2021 02:00:00 0,0 -0,6 7 4 13 7 WSW 1019,7 0 0,0
13.01.2021 01:00:00 0,3 -0,5 7 4 13 7 WSW 1019,6 0 0,0
13.01.2021 00:00:00 0,5 -0,5 7 4 14 7 W 1019,3 0 0,0
12.01.2021 23:00:00 1,3 -0,3 5 3 13 7 W 1018,7 0 0,0
12.01.2021 22:00:00 2,6 0,2 6 4 14 8 W 1018,2 0 0,0
12.01.2021 21:00:00 2,8 -0,3 7 4 16 9 W 1017,5 0 0,0
12.01.2021 20:00:00 3,4 -0,5 10 5 19 10 W 1016,6 0 0,0
12.01.2021 19:00:00 3,1 -0,2 7 4 16 8 W 1015,7 0 0,0
12.01.2021 18:00:00 4,1 -0,4 8 4 31 17 WNW 1014,9 0 0,0
12.01.2021 17:00:00 5,2 -0,1 19 10 37 20 NW 1014,3 11 0,0
12.01.2021 16:00:00 5,4 1,8 18 10 36 19 NNW 1013,1 0 0,0
12.01.2021 15:00:00 5,7 3,1 22 12 38 21 NW 1012,1 0 0,0
12.01.2021 14:00:00 6,1 4,0 17 9 34 18 NW 1011,1 0 0,0
12.01.2021 13:00:00 6,5 4,7 14 8 34 18 NNW 1010,6 0 0,0
12.01.2021 12:00:00 6,9 5,7 25 13 48 26 NW 1010,1 0 0,2
12.01.2021 11:00:00 - - - - - - - - - -
12.01.2021 10:00:00 8,0 7,3 18 10 48 26 W 1008,0 0 1,5
12.01.2021 09:00:00 7,8 7,2 19 10 35 19 WSW 1007,4 0 2,9
12.01.2021 08:00:00 7,4 6,7 14 7 31 17 WSW 1007,3 0 5,5
12.01.2021 07:00:00 7,2 6,4 14 8 42 23 WSW 1007,8 0 4,1
12.01.2021 06:00:00 7,0 6,3 17 9 44 24 WSW 1008,2 0 3,9
12.01.2021 05:00:00 6,7 6,0 22 12 48 26 SW 1008,9 0 1,9
12.01.2021 04:00:00 6,4 5,5 29 15 48 26 SW 1010,0 0 1,5
12.01.2021 03:00:00 6,1 5,3 23 12 51 28 SW 1011,1 0 1,5
12.01.2021 02:00:00 6,0 5,1 27 15 47 25 SW 1011,8 0 1,7
12.01.2021 01:00:00 5,9 4,8 22 12 53 29 SW 1012,8 0 0,3
12.01.2021 00:00:00 5,6 4,5 27 14 49 26 SW 1013,6 0 0,3
11.01.2021 23:00:00 5,4 4,0 24 13 43 23 SW 1014,4 0 0,3
11.01.2021 22:00:00 5,6 3,6 25 14 47 26 SW 1014,9 0 0,0
11.01.2021 21:00:00 5,4 3,4 22 12 44 24 SW 1015,5 0 0,0
11.01.2021 20:00:00 4,8 3,0 23 12 45 24 SW 1016,3 0 0,0
11.01.2021 19:00:00 4,7 2,5 22 12 42 23 SSW 1016,4 0 0,0
11.01.2021 18:00:00 4,9 2,6 29 16 49 26 SW 1017,1 0 0,0
11.01.2021 17:00:00 4,8 2,5 24 13 44 24 SW 1017,4 0 0,0
11.01.2021 16:00:00 4,6 2,2 24 13 41 22 SW 1017,7 0 0,0
11.01.2021 15:00:00 4,0 2,1 19 10 36 19 SSW 1018,2 0 0,0
11.01.2021 14:00:00 3,1 1,9 19 10 39 21 SW 1019,3 0 0,1
11.01.2021 13:00:00 3,5 1,3 22 12 40 22 SSW 1020,1 0 0,0
11.01.2021 12:00:00 2,9 0,9 22 12 44 24 SSW 1021,1 0 0,0
11.01.2021 11:00:00 3,2 1,1 20 11 30 16 SW 1021,4 0 0,0
11.01.2021 10:00:00 2,3 0,6 13 7 24 13 SSW 1021,5 0 0,0
11.01.2021 09:00:00 2,0 0,4 14 7 27 15 SSW 1021,8 0 0,0
11.01.2021 08:00:00 1,9 0,1 18 10 32 17 SSW 1022,1 0 0,0
11.01.2021 07:00:00 1,9 0,1 18 10 30 16 SSW 1022,5 0 0,0
11.01.2021 06:00:00 1,8 0,0 16 9 27 15 SSW 1022,7 0 0,0
11.01.2021 05:00:00 1,8 0,1 16 9 25 13 SSW 1023,1 0 0,0
11.01.2021 04:00:00 1,1 -0,1 13 7 20 11 SSW 1023,6 0 0,0
11.01.2021 03:00:00 0,9 0,1 10 5 18 10 SW 1023,6 0 0,0
11.01.2021 02:00:00 0,7 0,1 9 5 18 10 SW 1023,9 0 0,0
11.01.2021 01:00:00 0,0 -0,5 7 4 14 7 SW 1024,3 0 0,0
11.01.2021 00:00:00 -0,4 -0,9 5 3 13 7 WSW 1024,8 0 0,0
10.01.2021 23:00:00 -0,8 -1,2 7 4 10 6 WSW 1025,0 0 0,0
10.01.2021 22:00:00 -1,4 -1,6 5 3 11 6 SSW 1025,2 0 0,0
10.01.2021 21:00:00 -1,1 -1,4 6 3 12 6 WSW 1025,3 0 0,0
10.01.2021 20:00:00 -1,1 -1,3 4 2 11 6 SW 1025,4 0 0,0
10.01.2021 19:00:00 -0,7 -0,9 4 2 9 5 WSW 1025,2 0 0,0
10.01.2021 18:00:00 -0,5 -0,8 5 3 8 4 WSW 1025,4 0 0,0
10.01.2021 17:00:00 -0,1 -0,5 4 2 9 5 SW 1025,4 12 0,0
10.01.2021 16:00:00 1,5 0,0 5 3 9 5 SW 1025,2 57 0,0
10.01.2021 15:00:00 2,0 0,0 8 4 12 6 WSW 1025,0 60 0,0
10.01.2021 14:00:00 2,9 0,7 8 4 11 6 WSW 1025,1 60 0,0
10.01.2021 13:00:00 2,0 0,6 4 2 8 5 S 1025,5 60 0,0
10.01.2021 12:00:00 -0,1 -0,5 5 3 7 4 SSW 1026,2 18 0,0
10.01.2021 11:00:00 -0,9 -1,3 6 3 8 4 S 1026,4 18 0,0
10.01.2021 10:00:00 -1,3 -1,7 4 2 7 4 WSW 1026,0 0 0,0
10.01.2021 09:00:00 -0,8 -1,2 6 3 9 5 WSW 1025,8 0 0,0
10.01.2021 08:00:00 -0,5 -0,9 6 3 9 5 WSW 1025,6 0 0,0
10.01.2021 07:00:00 -0,6 -0,9 4 2 8 4 SW 1025,6 0 0,0
10.01.2021 06:00:00 -0,7 -1,0 5 3 10 5 W 1025,9 0 0,0
10.01.2021 05:00:00 -0,7 -1,1 4 2 10 6 SW 1025,8 0 0,0
10.01.2021 04:00:00 -1,0 -1,3 4 2 9 5 SW 1026,2 0 0,0
10.01.2021 03:00:00 -0,9 -1,2 5 3 8 4 WSW 1026,4 0 0,0
10.01.2021 02:00:00 -1,1 -1,4 4 2 5 3 WSW 1026,4 0 0,0
10.01.2021 01:00:00 -1,5 -1,8 4 2 9 5 WSW 1026,5 0 0,0
10.01.2021 00:00:00 -1,8 -2,0 4 2 8 4 WSW 1026,8 0 0,0
09.01.2021 23:00:00 -1,7 -1,9 4 2 8 5 WSW 1026,7 0 0,0
09.01.2021 22:00:00 -1,5 -1,7 4 2 7 4 SW 1026,7 0 0,0

tt = Température de l'air
td = dewpoint
ff = Vitesse du vent
fx = gusts
dd = Direction du vent
ppp = reduced air pressure
sd = Ensoleillement
rr = Quantités de précipitations

stations d'obs. à proximité